S56WDN-10 Weather Reports


time (UTC)temp
F
wind
direction
speed
knots
gust
knots
rain 1hr
in
rain 24hr
in
rain mn
in
humidity
%
barometer
mb
20260507202650 58 0 0.0 0.0 0.00 0.00 0.00 67 1015.2
20260507202150 59 0 0.0 0.0 0.00 0.00 0.00 66 1015.2
20260507201650 60 0 0.0 0.0 0.00 0.00 0.00 65 1015.1
20260507201150 60 0 0.0 0.0 0.00 0.00 0.00 65 1015.0
20260507200650 60 0 0.0 0.0 0.00 0.00 0.00 64 1014.8
20260507200150 61 0 0.0 0.0 0.00 0.00 0.00 63 1014.7
20260507195650 61 0 0.0 0.0 0.00 0.00 0.00 63 1014.6
20260507195150 61 0 0.0 0.0 0.00 0.00 0.00 63 1014.6
20260507194650 61 0 0.0 0.0 0.00 0.00 0.00 63 1014.4
20260507194150 61 0 0.0 0.0 0.00 0.00 0.00 62 1014.4
20260507193650 61 0 0.0 0.0 0.00 0.00 0.00 62 1014.3
20260507193150 61 0 0.0 0.0 0.00 0.00 0.00 62 1014.2
20260507192650 61 0 0.0 0.0 0.00 0.00 0.00 62 1014.0
20260507192150 61 0 0.0 0.0 0.00 0.00 0.00 62 1013.9
20260507191650 61 0 0.0 0.0 0.00 0.00 0.00 62 1013.7
20260507191150 62 0 0.0 0.0 0.00 0.00 0.00 62 1013.6
20260507190651 62 0 0.0 0.0 0.00 0.00 0.00 62 1013.6
20260507190151 62 0 0.0 0.0 0.00 0.00 0.00 61 1013.5
20260507185650 62 0 0.0 0.0 0.00 0.00 0.00 60 1013.3
20260507185151 63 0 0.0 0.0 0.00 0.00 0.00 60 1013.2
20260507184651 63 0 0.0 0.0 0.00 0.00 0.00 60 1012.9
20260507184151 63 0 0.0 0.0 0.00 0.00 0.00 60 1012.9
20260507183651 63 0 0.0 0.0 0.00 0.00 0.00 60 1012.9
20260507183151 63 0 0.0 0.0 0.00 0.00 0.00 60 1012.7
20260507182651 63 0 0.0 0.0 0.00 0.00 0.00 60 1012.8
20260507182151 64 0 0.0 0.0 0.00 0.00 0.00 60 1012.7
20260507181651 64 0 0.0 0.0 0.00 0.00 0.00 60 1012.7
20260507181151 64 0 0.0 0.0 0.00 0.00 0.00 60 1012.5
20260507180651 64 0 0.0 0.0 0.00 0.00 0.00 59 1012.4
20260507180151 64 0 0.0 0.0 0.00 0.00 0.00 59 1012.5
20260507175651 65 0 0.0 0.0 0.00 0.00 0.00 59 1012.4
20260507175151 65 0 0.0 0.0 0.00 0.00 0.00 59 1012.3
20260507174651 65 0 0.0 0.0 0.00 0.00 0.00 60 1012.1
20260507174151 65 0 0.0 0.0 0.00 0.00 0.00 60 1011.9
20260507173651 65 0 0.0 0.0 0.00 0.00 0.00 61 1011.9
20260507173151 65 0 0.0 0.0 0.00 0.00 0.00 61 1011.9
20260507172651 65 0 0.0 0.0 0.00 0.00 0.00 62 1011.8
20260507172151 65 0 0.0 0.0 0.00 0.00 0.00 64 1011.8
20260507171651 65 0 0.0 0.0 0.00 0.00 0.00 64 1011.9
20260507171151 66 0 0.0 0.0 0.00 0.00 0.00 64 1011.8
20260507170651 66 0 0.0 0.0 0.00 0.00 0.00 64 1011.8
20260507170151 66 0 0.0 0.0 0.00 0.00 0.00 63 1011.8
20260507165651 66 0 0.0 0.0 0.00 0.00 0.00 63 1011.8
20260507165151 67 0 0.0 0.0 0.00 0.00 0.00 63 1011.8
20260507164651 67 0 0.0 0.0 0.00 0.00 0.00 63 1011.7
20260507164151 68 0 0.0 0.0 0.00 0.00 0.00 61 1011.8
20260507163651 68 0 0.0 0.0 0.00 0.00 0.00 58 1011.7
20260507163151 69 0 0.0 0.0 0.00 0.00 0.00 57 1011.7
20260507162651 69 0 0.0 0.0 0.00 0.00 0.00 56 1011.8
20260507162151 71 0 0.0 0.0 0.00 0.00 0.00 55 1011.8
20260507161651 71 0 0.0 0.0 0.00 0.00 0.00 55 1011.7
20260507161151 71 0 0.0 0.0 0.00 0.00 0.00 55 1011.5
20260507160651 70 0 0.0 0.0 0.00 0.00 0.00 55 1011.5
20260507160151 69 0 0.0 0.0 0.00 0.00 0.00 56 1011.4
20260507155651 69 0 0.0 0.0 0.00 0.00 0.00 55 1011.5
20260507155151 69 0 0.0 0.0 0.00 0.00 0.00 55 1011.4
20260507154651 69 0 0.0 0.0 0.00 0.00 0.00 55 1011.4
20260507154151 71 0 0.0 0.0 0.00 0.00 0.00 54 1011.4
20260507153651 71 0 0.0 0.0 0.00 0.00 0.00 52 1011.3
20260507153151 71 0 0.0 0.0 0.00 0.00 0.00 52 1011.3
20260507152651 71 0 0.0 0.0 0.00 0.00 0.00 52 1011.2
20260507152151 73 0 0.0 0.0 0.00 0.00 0.00 51 1011.1
20260507151651 72 0 0.0 0.0 0.00 0.00 0.00 52 1011.1
20260507151151 72 0 0.0 0.0 0.00 0.00 0.00 51 1011.2
20260507150651 73 0 0.0 0.0 0.00 0.00 0.00 50 1011.1
20260507150151 73 0 0.0 0.0 0.00 0.00 0.00 50 1011.2
20260507145651 75 0 0.0 0.0 0.00 0.00 0.00 49 1011.1
20260507145151 75 0 0.0 0.0 0.00 0.00 0.00 51 1011.2
20260507144651 74 0 0.0 0.0 0.00 0.00 0.00 52 1011.2
20260507144151 74 0 0.0 0.0 0.00 0.00 0.00 51 1011.2
20260507143651 74 0 0.0 0.0 0.00 0.00 0.00 51 1011.3
20260507143151 73 0 0.0 0.0 0.00 0.00 0.00 52 1011.1
20260507142651 73 0 0.0 0.0 0.00 0.00 0.00 51 1011.2
20260507142151 74 0 0.0 0.0 0.00 0.00 0.00 50 1011.2
20260507141651 74 0 0.0 0.0 0.00 0.00 0.00 50 1011.2
20260507141151 74 0 0.0 0.0 0.00 0.00 0.00 50 1011.4
20260507140651 74 0 0.0 0.0 0.00 0.00 0.00 51 1011.2
20260507140151 74 0 0.0 0.0 0.00 0.00 0.00 50 1011.4
20260507135651 74 0 0.0 0.0 0.00 0.00 0.00 50 1011.4
20260507135151 74 0 0.0 0.0 0.00 0.00 0.00 50 1011.5
20260507134651 74 0 0.0 0.0 0.00 0.00 0.00 50 1011.5
20260507134151 74 0 0.0 0.0 0.00 0.00 0.00 51 1011.6
20260507133651 74 0 0.0 0.0 0.00 0.00 0.00 51 1011.6
20260507133151 74 0 0.0 0.0 0.00 0.00 0.00 52 1011.6
20260507132651 74 0 0.0 0.0 0.00 0.00 0.00 52 1011.8
20260507132151 73 0 0.0 0.0 0.00 0.00 0.00 52 1011.9
20260507131651 73 0 0.0 0.0 0.00 0.00 0.00 53 1012.0
20260507131151 72 0 0.0 0.0 0.00 0.00 0.00 54 1012.0
20260507130651 71 0 0.0 0.0 0.00 0.00 0.00 56 1011.9
20260507130151 69 0 0.0 0.0 0.00 0.00 0.00 58 1012.0
20260507125651 69 0 0.0 0.0 0.00 0.00 0.00 59 1012.2
20260507125151 70 0 0.0 0.0 0.00 0.00 0.00 57 1012.2
20260507124651 70 0 0.0 0.0 0.00 0.00 0.00 57 1012.2
20260507124151 70 0 0.0 0.0 0.00 0.00 0.00 57 1012.2
20260507123651 70 0 0.0 0.0 0.00 0.00 0.00 58 1012.0
20260507123151 70 0 0.0 0.0 0.00 0.00 0.00 59 1012.2
20260507122651 70 0 0.0 0.0 0.00 0.00 0.00 59 1012.3
20260507122151 69 0 0.0 0.0 0.00 0.00 0.00 59 1012.3
20260507121651 69 0 0.0 0.0 0.00 0.00 0.00 59 1012.4
20260507121151 69 0 0.0 0.0 0.00 0.00 0.00 59 1012.4
20260507120651 69 0 0.0 0.0 0.00 0.00 0.00 58 1012.4
20260507120151 70 0 0.0 0.0 0.00 0.00 0.00 58 1012.5
20260507115651 70 0 0.0 0.0 0.00 0.00 0.00 58 1012.5
20260507115151 71 0 0.0 0.0 0.00 0.00 0.00 59 1012.6
20260507114651 71 0 0.0 0.0 0.00 0.00 0.00 59 1012.6
20260507114151 71 0 0.0 0.0 0.00 0.00 0.00 59 1012.5
20260507113651 71 0 0.0 0.0 0.00 0.00 0.00 59 1012.5
20260507113151 71 0 0.0 0.0 0.00 0.00 0.00 58 1012.5
20260507112651 71 0 0.0 0.0 0.00 0.00 0.00 57 1012.5
20260507112151 72 0 0.0 0.0 0.00 0.00 0.00 56 1012.5
20260507111651 72 0 0.0 0.0 0.00 0.00 0.00 55 1012.6
20260507111151 73 0 0.0 0.0 0.00 0.00 0.00 55 1012.6
20260507110652 73 0 0.0 0.0 0.00 0.00 0.00 54 1012.6
20260507110152 73 0 0.0 0.0 0.00 0.00 0.00 54 1012.6
20260507105652 72 0 0.0 0.0 0.00 0.00 0.00 57 1012.6
20260507105152 72 0 0.0 0.0 0.00 0.00 0.00 57 1012.5
20260507104652 70 0 0.0 0.0 0.00 0.00 0.00 57 1012.6
20260507104152 70 0 0.0 0.0 0.00 0.00 0.00 58 1012.6
20260507103652 70 0 0.0 0.0 0.00 0.00 0.00 58 1012.7
20260507103152 70 0 0.0 0.0 0.00 0.00 0.00 58 1012.8
20260507102652 70 0 0.0 0.0 0.00 0.00 0.00 58 1012.9
20260507102152 69 0 0.0 0.0 0.00 0.00 0.00 58 1012.9
20260507101652 69 0 0.0 0.0 0.00 0.00 0.00 59 1012.7
20260507101152 68 0 0.0 0.0 0.00 0.00 0.00 61 1012.8
20260507100652 68 0 0.0 0.0 0.00 0.00 0.00 60 1012.9
20260507100152 69 0 0.0 0.0 0.00 0.00 0.00 58 1012.9
20260507095652 69 0 0.0 0.0 0.00 0.00 0.00 58 1013.0
20260507095156 69 0 0.0 0.0 0.00 0.00 0.00 60 1013.3
20260507094652 69 0 0.0 0.0 0.00 0.00 0.00 60 1013.2
20260507094152 69 0 0.0 0.0 0.00 0.00 0.00 60 1013.3
20260507093652 69 0 0.0 0.0 0.00 0.00 0.00 60 1013.0
20260507093152 69 0 0.0 0.0 0.00 0.00 0.00 60 1013.1
20260507092652 70 0 0.0 0.0 0.00 0.00 0.00 61 1013.2
20260507092152 69 0 0.0 0.0 0.00 0.00 0.00 61 1013.2
20260507091652 69 0 0.0 0.0 0.00 0.00 0.00 62 1013.2
20260507091152 69 0 0.0 0.0 0.00 0.00 0.00 63 1013.2
20260507090652 68 0 0.0 0.0 0.00 0.00 0.00 66 1013.3
20260507090152 68 0 0.0 0.0 0.00 0.00 0.00 66 1013.1
20260507085652 66 0 0.0 0.0 0.00 0.00 0.00 69 1013.2
20260507085152 66 0 0.0 0.0 0.00 0.00 0.00 70 1013.2
20260507084652 65 0 0.0 0.0 0.00 0.00 0.00 72 1013.2
20260507084152 64 0 0.0 0.0 0.00 0.00 0.00 73 1013.3
20260507083652 64 0 0.0 0.0 0.00 0.00 0.00 74 1013.3
20260507083152 63 0 0.0 0.0 0.00 0.00 0.00 76 1013.3
20260507082652 63 0 0.0 0.0 0.00 0.00 0.00 77 1013.3
20260507082152 63 0 0.0 0.0 0.00 0.00 0.00 78 1013.2
20260507081652 62 0 0.0 0.0 0.00 0.00 0.00 78 1013.1
20260507081152 60 0 0.0 0.0 0.00 0.00 0.00 80 1013.3
20260507080652 60 0 0.0 0.0 0.00 0.00 0.00 80 1013.3
20260507080152 60 0 0.0 0.0 0.00 0.00 0.00 81 1013.3
20260507075652 59 0 0.0 0.0 0.00 0.00 0.00 81 1013.3
20260507075152 59 0 0.0 0.0 0.00 0.00 0.00 82 1013.3
20260507074652 59 0 0.0 0.0 0.00 0.00 0.00 82 1013.3
20260507074152 58 0 0.0 0.0 0.00 0.00 0.00 82 1013.2
20260507073652 58 0 0.0 0.0 0.00 0.00 0.00 83 1013.3
20260507073152 58 0 0.0 0.0 0.00 0.00 0.00 83 1013.3
20260507072652 58 0 0.0 0.0 0.00 0.00 0.00 83 1013.3
20260507072152 57 0 0.0 0.0 0.00 0.00 0.00 84 1013.2
20260507071652 57 0 0.0 0.0 0.00 0.00 0.00 84 1013.2
20260507071152 57 0 0.0 0.0 0.00 0.00 0.00 85 1013.2
20260507070652 57 0 0.0 0.0 0.00 0.00 0.00 85 1013.2
20260507070152 57 0 0.0 0.0 0.00 0.00 0.00 85 1013.2
20260507065652 56 0 0.0 0.0 0.00 0.00 0.00 85 1013.2
20260507065152 56 0 0.0 0.0 0.00 0.00 0.00 85 1013.1
20260507064652 56 0 0.0 0.0 0.00 0.00 0.00 85 1013.2
20260507064152 56 0 0.0 0.0 0.00 0.00 0.00 85 1013.0
20260507063652 56 0 0.0 0.0 0.00 0.00 0.00 85 1013.2
20260507063152 55 0 0.0 0.0 0.00 0.00 0.00 85 1013.1
20260507062652 55 0 0.0 0.0 0.00 0.00 0.00 86 1013.1
20260507062152 55 0 0.0 0.0 0.00 0.00 0.00 86 1013.0
20260507061652 55 0 0.0 0.0 0.00 0.00 0.00 86 1013.0
20260507061152 55 0 0.0 0.0 0.00 0.00 0.00 87 1013.0
20260507060652 55 0 0.0 0.0 0.00 0.00 0.00 87 1012.9
20260507060152 55 0 0.0 0.0 0.00 0.00 0.00 87 1012.9
20260507055652 55 0 0.0 0.0 0.00 0.00 0.00 87 1013.0
20260507055152 54 0 0.0 0.0 0.00 0.00 0.00 87 1012.8
20260507054652 54 0 0.0 0.0 0.00 0.00 0.00 87 1012.8
20260507054152 54 0 0.0 0.0 0.00 0.00 0.00 87 1012.8
20260507053652 54 0 0.0 0.0 0.00 0.00 0.00 88 1012.7
20260507053152 54 0 0.0 0.0 0.00 0.00 0.00 88 1012.6
20260507052652 53 0 0.0 0.0 0.00 0.00 0.00 88 1012.6
20260507052152 53 0 0.0 0.0 0.00 0.00 0.00 88 1012.6
20260507051652 53 0 0.0 0.0 0.00 0.00 0.00 88 1012.4
20260507051152 53 0 0.0 0.0 0.00 0.00 0.00 88 1012.4
20260507050652 53 0 0.0 0.0 0.00 0.00 0.00 88 1012.6
20260507050152 53 0 0.0 0.0 0.00 0.00 0.00 88 1012.5
20260507045652 52 0 0.0 0.0 0.00 0.00 0.00 88 1012.3
20260507045152 52 0 0.0 0.0 0.00 0.00 0.00 88 1012.4
20260507044652 52 0 0.0 0.0 0.00 0.00 0.00 88 1012.4
20260507044152 52 0 0.0 0.0 0.00 0.00 0.00 88 1012.3
20260507043652 52 0 0.0 0.0 0.00 0.00 0.00 88 1012.3
20260507043152 52 0 0.0 0.0 0.00 0.00 0.00 88 1012.3
20260507042652 52 0 0.0 0.0 0.00 0.00 0.00 88 1012.2
20260507042152 52 0 0.0 0.0 0.00 0.00 0.00 88 1012.0
20260507041652 52 0 0.0 0.0 0.00 0.00 0.00 88 1012.2
20260507041152 52 0 0.0 0.0 0.00 0.00 0.00 87 1012.2
20260507040652 52 0 0.0 0.0 0.00 0.00 0.00 87 1012.0
20260507040152 52 0 0.0 0.0 0.00 0.00 0.00 87 1011.9
20260507035652 52 0 0.0 0.0 0.00 0.00 0.00 87 1011.9
20260507035152 53 0 0.0 0.0 0.00 0.00 0.00 87 1011.9
20260507034652 53 0 0.0 0.0 0.00 0.00 0.00 87 1011.9
20260507034152 53 0 0.0 0.0 0.00 0.00 0.00 87 1011.8
20260507033652 53 0 0.0 0.0 0.00 0.00 0.00 87 1011.9
20260507033152 53 0 0.0 0.0 0.00 0.00 0.00 87 1011.9
20260507032652 53 0 0.0 0.0 0.00 0.00 0.00 87 1011.9
20260507032152 54 0 0.0 0.0 0.00 0.00 0.00 87 1011.8
20260507031653 54 0 0.0 0.0 0.00 0.00 0.00 87 1011.9
20260507031153 54 0 0.0 0.0 0.00 0.00 0.00 87 1011.8
20260507030653 54 0 0.0 0.0 0.00 0.00 0.00 86 1011.8
20260507030153 54 0 0.0 0.0 0.00 0.00 0.00 86 1011.6
20260507025653 54 0 0.0 0.0 0.00 0.00 0.00 86 1011.7
20260507025153 54 0 0.0 0.0 0.00 0.00 0.00 86 1011.6
20260507024653 54 0 0.0 0.0 0.00 0.00 0.00 86 1011.5
20260507024153 54 0 0.0 0.0 0.00 0.00 0.00 86 1011.4
20260507023653 55 0 0.0 0.0 0.00 0.00 0.00 86 1011.5
20260507023153 55 0 0.0 0.0 0.00 0.00 0.00 86 1011.5
20260507022653 54 0 0.0 0.0 0.00 0.00 0.00 86 1011.5
20260507022153 54 0 0.0 0.0 0.00 0.00 0.00 86 1011.6
20260507021653 54 0 0.0 0.0 0.00 0.00 0.00 86 1011.6
20260507021153 54 0 0.0 0.0 0.00 0.00 0.00 86 1011.5
20260507020653 54 0 0.0 0.0 0.00 0.00 0.00 86 1011.6
20260507020153 54 0 0.0 0.0 0.00 0.00 0.00 85 1011.5
20260507015653 54 0 0.0 0.0 0.00 0.00 0.00 85 1011.6
20260507015153 54 0 0.0 0.0 0.00 0.00 0.00 86 1011.6
20260507014653 54 0 0.0 0.0 0.00 0.00 0.00 86 1011.7
20260507014153 54 0 0.0 0.0 0.00 0.00 0.00 85 1011.6
20260507013653 54 0 0.0 0.0 0.00 0.00 0.00 85 1011.6
20260507013153 54 0 0.0 0.0 0.00 0.00 0.00 85 1011.6
20260507012653 54 0 0.0 0.0 0.00 0.00 0.00 85 1011.5
20260507012153 54 0 0.0 0.0 0.00 0.00 0.00 85 1011.5
20260507011653 54 0 0.0 0.0 0.00 0.00 0.00 85 1011.5
20260507011153 55 0 0.0 0.0 0.00 0.00 0.00 84 1011.4
20260507010653 55 0 0.0 0.0 0.00 0.00 0.00 85 1011.3
20260507010153 55 0 0.0 0.0 0.00 0.00 0.00 85 1011.3
20260507005653 55 0 0.0 0.0 0.00 0.00 0.00 85 1011.3
20260507005153 55 0 0.0 0.0 0.00 0.00 0.00 84 1011.3
20260507004653 55 0 0.0 0.0 0.00 0.00 0.00 84 1011.5
20260507004153 55 0 0.0 0.0 0.00 0.00 0.00 84 1011.4
20260507003653 55 0 0.0 0.0 0.00 0.00 0.00 84 1011.5
20260507003153 56 0 0.0 0.0 0.00 0.00 0.00 84 1011.5
20260507002653 56 0 0.0 0.0 0.00 0.00 0.00 83 1011.6
20260507002153 56 0 0.0 0.0 0.00 0.00 0.00 83 1011.5
20260507001653 56 0 0.0 0.0 0.00 0.00 0.00 83 1011.6
20260507001153 56 0 0.0 0.0 0.00 0.00 0.00 84 1011.5
20260507000653 56 0 0.0 0.0 0.00 0.00 0.00 85 1011.5
20260507000153 56 0 0.0 0.0 0.00 0.00 0.00 85 1011.7
20260506235653 56 0 0.0 0.0 0.00 0.00 0.00 85 1011.6
20260506235153 56 0 0.0 0.0 0.00 0.00 0.00 85 1011.5
20260506234653 56 0 0.0 0.0 0.00 0.00 0.00 85 1011.5
20260506234153 56 0 0.0 0.0 0.00 0.00 0.00 85 1011.3
20260506233653 56 0 0.0 0.0 0.00 0.00 0.00 85 1011.5
20260506233153 56 0 0.0 0.0 0.00 0.00 0.00 85 1011.5
20260506232653 56 0 0.0 0.0 0.00 0.00 0.00 87 1011.7
20260506232153 56 0 0.0 0.0 0.00 0.00 0.00 87 1011.6
20260506231653 56 0 0.0 0.0 0.00 0.00 0.00 87 1011.7
20260506231153 56 0 0.0 0.0 0.00 0.00 0.00 87 1011.7
20260506230653 56 0 0.0 0.0 0.00 0.00 0.00 87 1011.7
20260506230153 56 0 0.0 0.0 0.00 0.00 0.00 87 1011.8
20260506225653 56 0 0.0 0.0 0.00 0.00 0.00 87 1011.9
20260506225153 56 0 0.0 0.0 0.00 0.00 0.00 87 1011.8
20260506224653 56 0 0.0 0.0 0.00 0.00 0.00 87 1011.7
20260506224153 56 0 0.0 0.0 0.00 0.00 0.00 87 1011.7
20260506223653 56 0 0.0 0.0 0.00 0.00 0.00 87 1011.7
20260506223153 56 0 0.0 0.0 0.00 0.00 0.00 87 1011.6
20260506222653 56 0 0.0 0.0 0.00 0.00 0.00 86 1011.5
20260506222153 56 0 0.0 0.0 0.00 0.00 0.00 86 1011.6
20260506221653 56 0 0.0 0.0 0.00 0.00 0.00 86 1011.4
20260506221153 56 0 0.0 0.0 0.00 0.00 0.00 86 1011.2
20260506220653 56 0 0.0 0.0 0.00 0.00 0.00 86 1011.3
20260506220153 56 0 0.0 0.0 0.00 0.00 0.00 86 1011.3
20260506215653 57 0 0.0 0.0 0.00 0.00 0.00 86 1011.1
20260506215153 57 0 0.0 0.0 0.00 0.00 0.00 86 1011.1
20260506214653 57 0 0.0 0.0 0.00 0.00 0.00 86 1011.1
20260506214153 57 0 0.0 0.0 0.00 0.00 0.00 85 1011.0
20260506213653 57 0 0.0 0.0 0.00 0.00 0.00 85 1011.1
20260506213153 57 0 0.0 0.0 0.00 0.00 0.00 86 1011.2
20260506212653 57 0 0.0 0.0 0.00 0.00 0.00 86 1011.2
20260506212153 57 0 0.0 0.0 0.00 0.00 0.00 86 1011.2
20260506211653 57 0 0.0 0.0 0.00 0.00 0.00 86 1011.3
20260506211153 57 0 0.0 0.0 0.00 0.00 0.00 85 1011.4
20260506210653 56 0 0.0 0.0 0.00 0.00 0.00 85 1011.2
20260506210153 56 0 0.0 0.0 0.00 0.00 0.00 85 1011.2
20260506205653 56 0 0.0 0.0 0.00 0.00 0.00 84 1011.2
20260506205153 56 0 0.0 0.0 0.00 0.00 0.00 82 1010.9
20260506204653 57 0 0.0 0.0 0.00 0.00 0.00 82 1011.0
20260506204153 57 0 0.0 0.0 0.00 0.00 0.00 82 1011.0
20260506203653 57 0 0.0 0.0 0.00 0.00 0.00 82 1010.9
20260506203153 57 0 0.0 0.0 0.00 0.00 0.00 82 1010.8